Torna al catalogo

CZ-4C R/B

AttivoSSO
NORAD 53699·ROCKET BODY·🇨🇳 China

Lanciato Sep 2, 2022 da Jiuquan Satellite Launch Center

Loading…

Prossimi Passaggi (prossime 24 ore)

TLE

AggiornatoSource: Space-Track

Epoca: Sep 14, 2026, 05:55 UTC

1 53699U 22106B   26257.24693576  .00002591  00000-0  17293-3 0  9999
2 53699  98.0469 343.8593 0107310 212.0118 147.4559 15.03404560220302

Traccia CZ-4C R/B in tempo reale con AllMySat

Download on the App Store